Location: Anjeux
(47.8815°N, 6.2076°E)
Time: 17:37:30
(UTC+00:00)

ISS - Pass Details

Date: 02 October 2021
Orbit: 417 x 423 km, 51.6° (Epoch: 20 October)

Event Time Altitude Azimuth Distance (km) Brightness Sun altitude
Rises 19:06:18 0° 291° (WNW) 2,366 1.7 -19.8°
Reaches altitude 10° 19:08:30 10° 282° (WNW) 1,500 0.2 -20.1°
Maximum altitude 19:11:35 34° 215° (SW) 714 -2.5 -20.6°
Enters shadow 19:11:52 33° 204° (SSW) 723 -2.6 -20.7°
